Mt. Pocono, PA

9:05 AM EST on December 13, 2019 (GMT -0500)
Pocono Mountains Municipal

Weather History for KMPO - September, 2019

Change the Weather History Date:

Monday, September 9, 2019

  Actual Average Record
Temperature  
Mean Temperature 62 °F 61 °F  
Max Temperature 70 °F 70 °F 88 °F (1964)
Min Temperature 54 °F 52 °F 31 °F (1986)
Degree Days  
Heating Degree Days 3 5  
Month to date heating degree days 32 32  
Since 1 July heating degree days 73 95  
Cooling Degree Days 0 1  
Month to date cooling degree days 7 9  
Year to date cooling degree days 325 305  
Growing Degree Days 12 (Base 50)    
Moisture  
Dew Point 55 °F    
Average Humidity 80    
Maximum Humidity 100    
Minimum Humidity 63    
Precipitation  
Precipitation 0.00 in 0.18 in 3.30 in (1929)
Month to date precipitation 0.72 1.38  
Year to date precipitation 35.65 32.36  
Sea Level Pressure  
Sea Level Pressure 30.26 in    
Wind  
Wind Speed 4 mph ()    
Max Wind Speed 8 mph    
Max Gust Speed 13 mph    
Visibility 10.0 miles    
Events      
T = Trace of Precipitation, MM = Missing Value Source: Averaged Metar Reports

Daily Weather History Graph

Daily Weather History Graph

Search for Another Location

Airport or City:

Astronomy

Sep. 09, 2019 Rise Set
Actual Time 6:35 AM EDT 7:21 PM EDT
Civil Twilight 6:07 AM EDT 7:49 PM EDT
Nautical Twilight 5:34 AM EDT 8:22 PM EDT
Astronomical Twilight 5:00 AM EDT 8:56 PM EDT
Moon 5:17 PM EDT (9/9) 2:02 AM EDT (9/9)
Length of Visible Light 13h 41m
Length of Day
12h 45m
Waxing Gibbous, 83% of the Moon is Illuminated
Sep 9
Waxing Gibbous
Sep 14
Full
Sep 21
Last Quarter
Sep 28
New
Oct 5
First Quarter

Hourly Weather History & Observations

Time (EDT) Temp. Dew Point Humidity Pressure Visibility Wind Dir Wind Speed Gust Speed Precip Events Conditions
12:53 AM 59.0 °F 50.0 °F 72% 30.19 in 10.0 mi NNE 5.8 mph - N/A   Scattered Clouds
1:53 AM 57.9 °F 50.0 °F 75% 30.19 in 10.0 mi NE 5.8 mph - N/A   Clear
2:53 AM 55.9 °F 50.0 °F 80% 30.19 in 10.0 mi Variable 3.5 mph - N/A   Mostly Cloudy
3:53 AM 55.9 °F 48.9 °F 77% 30.20 in 10.0 mi NE 4.6 mph - N/A   Overcast
4:53 AM 55.9 °F 48.0 °F 75% 30.20 in 10.0 mi ENE 5.8 mph - N/A   Mostly Cloudy
5:53 AM 55.0 °F 48.0 °F 77% 30.22 in 10.0 mi ENE 4.6 mph - N/A   Mostly Cloudy
6:53 AM 54.0 °F 48.0 °F 80% 30.24 in 10.0 mi ENE 5.8 mph - N/A   Clear
7:53 AM 55.9 °F 48.9 °F 77% 30.25 in 10.0 mi ENE 6.9 mph - N/A   Clear
8:53 AM 57.9 °F 48.9 °F 72% 30.27 in 10.0 mi ENE 5.8 mph - N/A   Clear
9:25 AM 59.0 °F 48.9 °F 69% 30.28 in 10.0 mi ENE 5.8 mph - N/A   Mostly Cloudy
9:53 AM 59.0 °F 50.0 °F 72% 30.28 in 10.0 mi Variable 5.8 mph - N/A   Overcast
10:53 AM 59.0 °F 51.1 °F 75% 30.29 in 10.0 mi East 5.8 mph - N/A   Overcast
11:53 AM 61.0 °F 53.1 °F 75% 30.28 in 10.0 mi NE 4.6 mph - N/A   Overcast
12:41 PM 64.0 °F 55.9 °F 75% 30.28 in 10.0 mi ESE 6.9 mph - N/A   Overcast
12:53 PM 64.9 °F 57.0 °F 75% 30.27 in 10.0 mi Variable 5.8 mph - N/A   Overcast
1:53 PM 64.9 °F 57.0 °F 75% 30.26 in 10.0 mi SE 4.6 mph - N/A   Mostly Cloudy
2:06 PM 66.9 °F 57.0 °F 70% 30.26 in 10.0 mi SE 8.1 mph - N/A   Mostly Cloudy
2:53 PM 68.0 °F 57.9 °F 70% 30.25 in 10.0 mi Variable 4.6 mph - N/A   Mostly Cloudy
3:53 PM 70.0 °F 57.0 °F 63% 30.25 in 10.0 mi Variable 3.5 mph - N/A   Partly Cloudy
4:53 PM 68.0 °F 57.9 °F 70% 30.26 in 10.0 mi ESE 4.6 mph - N/A   Mostly Cloudy
5:53 PM 68.0 °F 57.9 °F 70% 30.26 in 10.0 mi South 5.8 mph - N/A   Clear
6:53 PM 64.9 °F 59.0 °F 81% 30.27 in 10.0 mi SE 3.5 mph - N/A   Clear
7:53 PM 60.1 °F 59.0 °F 96% 30.27 in 10.0 mi East 3.5 mph - N/A   Clear
8:53 PM 59.0 °F 57.9 °F 96% 30.30 in 10.0 mi Calm Calm - N/A   Mostly Cloudy
9:53 PM 61.0 °F 59.0 °F 93% 30.30 in 10.0 mi ENE 3.5 mph - N/A   Overcast
10:03 PM 61.0 °F 59.0 °F 93% 30.31 in 10.0 mi East 3.5 mph - N/A   Mostly Cloudy
10:12 PM 61.0 °F 59.0 °F 93% 30.31 in 10.0 mi East 3.5 mph - N/A   Mostly Cloudy
10:21 PM 60.1 °F 59.0 °F 96% 30.32 in 10.0 mi Calm Calm - N/A   Mostly Cloudy
10:35 PM 61.0 °F 59.0 °F 93% 30.32 in 10.0 mi Calm Calm - N/A   Overcast
10:53 PM 60.1 °F 59.0 °F 96% 30.31 in 10.0 mi ESE 4.6 mph - N/A   Mostly Cloudy
11:53 PM 62.1 °F 62.1 °F 100% 30.31 in 10.0 mi SE 3.5 mph - N/A   Overcast